Retour au catalogue

YUNYAO-1 33

ActifMétéoSSO
NORAD 61898·PAYLOAD·🇨🇳 China
Ce nom de satellite n'a pas encore été confirmé par des sources officielles.

Lancé Nov 11, 2024 depuis Jiuquan Satellite Launch Center

Loading…

Prochains Passages (prochaines 24 heures)

TLE

FraisSource: Space-Track

Époque: Sep 14, 2026, 22:03 UTC

1 61898U 24205E   26257.91901571  .00006652  00000-0  37548-3 0  9999
2 61898  97.4039 325.8279 0055816  53.5538 307.0819 15.12119356101774

Suivez YUNYAO-1 33 en temps réel avec AllMySat

Download on the App Store